• In Czech Republic
  • List of Countries
  • For 7 days
  • Water Temperature
  • Satellite Maps
  • Weather Map
  • Weather Widgets
  • user-avatar
    Login

    Hourly Weather Yerevan

    Today, 26 September, Tuesday

    Time Temperature Precipitation Wind Pressure Humidity
    00:00 +20°C° 0 mm 1 mps 692 mmHg 57%
    01:00 +20°C° 0 mm 1 mps 692 mmHg 58%
    02:00 +19°C° 0 mm 1 mps 692 mmHg 60%
    03:00 +18°C° 0 mm 1 mps 692 mmHg 63%
    04:00 +18°C° 0 mm 1 mps 691 mmHg 64%
    05:00 +18°C° 0 mm 1 mps 691 mmHg 65%
    06:00 +16°C° 0 mm 1 mps 691 mmHg 66%
    07:00 +20°C° 0 mm 1 mps 691 mmHg 57%
    08:00 +22°C° 0 mm 1 mps 691 mmHg 47%
    09:00 +24°C° 0 mm 2 mps 692 mmHg 36%
    10:00 +26°C° 0 mm 2 mps 692 mmHg 32%
    11:00 +27°C° 0 mm 2 mps 692 mmHg 28%
    12:00 +28°C° 0 mm 2 mps 691 mmHg 25%
    13:00 +28°C° 0 mm 2 mps 691 mmHg 24%
    14:00 +29°C° 0 mm 2 mps 690 mmHg 23%
    15:00 +29°C° 0 mm 2 mps 690 mmHg 22%
    16:00 +27°C° 0 mm 2 mps 690 mmHg 26%
    17:00 +26°C° 0 mm 2 mps 690 mmHg 30%
    18:00 +24°C° 0 mm 2 mps 690 mmHg 33%
    19:00 +24°C° 0 mm 2 mps 690 mmHg 37%
    20:00 +23°C° 0 mm 2 mps 690 mmHg 42%
    21:00 +21°C° 0 mm 2 mps 690 mmHg 46%
    22:00 +21°C° 0.1 mm 2 mps 690 mmHg 49%
    23:00 +21°C° 0.1 mm 2 mps 690 mmHg 52%

    Tomorrow, 27 September, Wednesday

    Time Temperature Precipitation Wind Pressure Humidity
    00:00 +21°C° 0.1 mm 1 mps 690 mmHg 54%
    01:00 +21°C° 0 mm 1 mps 690 mmHg 56%
    02:00 +20°C° 0 mm 1 mps 690 mmHg 59%
    03:00 +20°C° 0 mm 1 mps 690 mmHg 61%
    04:00 +20°C° 0.1 mm 1 mps 690 mmHg 62%
    05:00 +19°C° 0.1 mm 1 mps 689 mmHg 63%
    06:00 +19°C° 0.1 mm 1 mps 689 mmHg 64%
    07:00 +21°C° 0.1 mm 1 mps 690 mmHg 56%
    08:00 +23°C° 0.1 mm 1 mps 690 mmHg 48%
    09:00 +25°C° 0.1 mm 2 mps 690 mmHg 39%
    10:00 +26°C° 0.1 mm 2 mps 690 mmHg 36%
    11:00 +27°C° 0.1 mm 2 mps 690 mmHg 33%
    12:00 +28°C° 0.1 mm 3 mps 690 mmHg 29%
    13:00 +29°C° 0.1 mm 3 mps 689 mmHg 28%
    14:00 +29°C° 0.1 mm 3 mps 689 mmHg 28%
    15:00 +29°C° 0.1 mm 4 mps 688 mmHg 27%
    16:00 +28°C° 0.3 mm 3 mps 688 mmHg 32%
    17:00 +26°C° 0.3 mm 3 mps 688 mmHg 37%
    18:00 +24°C° 0.3 mm 3 mps 688 mmHg 41%
    19:00 +24°C° 0.2 mm 3 mps 689 mmHg 46%
    20:00 +22°C° 0.2 mm 3 mps 689 mmHg 51%
    21:00 +21°C° 0.2 mm 3 mps 689 mmHg 56%
    22:00 +20°C° 0.1 mm 3 mps 689 mmHg 59%
    23:00 +19°C° 0.1 mm 2 mps 689 mmHg 62%

    Day after tomorrow, 28 September, Thursday

    Time Temperature Precipitation Wind Pressure Humidity
    00:00 +18°C° 0.1 mm 2 mps 689 mmHg 65%
    01:00 +18°C° 0.1 mm 2 mps 689 mmHg 66%
    02:00 +19°C° 0.1 mm 1 mps 689 mmHg 67%
    03:00 +18°C° 0.1 mm 1 mps 689 mmHg 68%
    04:00 +18°C° 0.1 mm 1 mps 689 mmHg 69%
    05:00 +18°C° 0.1 mm 1 mps 689 mmHg 69%
    06:00 +16°C° 0.1 mm 1 mps 689 mmHg 70%
    07:00 +19°C° 0 mm 1 mps 689 mmHg 63%
    08:00 +21°C° 0 mm 1 mps 690 mmHg 56%
    09:00 +23°C° 0 mm 1 mps 690 mmHg 49%
    10:00 +24°C° 0.1 mm 2 mps 690 mmHg 45%
    11:00 +25°C° 0.1 mm 2 mps 690 mmHg 41%
    12:00 +26°C° 0.1 mm 2 mps 690 mmHg 38%
    13:00 +26°C° 0.2 mm 2 mps 690 mmHg 37%
    14:00 +26°C° 0.2 mm 2 mps 690 mmHg 36%
    15:00 +27°C° 0.2 mm 2 mps 690 mmHg 35%
    16:00 +25°C° 0.2 mm 3 mps 690 mmHg 40%
    17:00 +24°C° 0.2 mm 3 mps 690 mmHg 45%
    18:00 +21°C° 0.2 mm 3 mps 690 mmHg 49%
    19:00 +21°C° 0.1 mm 3 mps 690 mmHg 53%
    20:00 +20°C° 0.1 mm 3 mps 691 mmHg 57%
    21:00 +19°C° 0.1 mm 3 mps 691 mmHg 61%
    22:00 +18°C° 0.1 mm 3 mps 691 mmHg 63%
    23:00 +17°C° 0.1 mm 2 mps 691 mmHg 65%

    29 September, Friday

    Time Temperature Precipitation Wind Pressure Humidity
    00:00 +17°C° 0.1 mm 2 mps 691 mmHg 67%
    01:00 +17°C° 0 mm 2 mps 691 mmHg 68%
    02:00 +16°C° 0 mm 2 mps 691 mmHg 69%
    03:00 +16°C° 0 mm 2 mps 691 mmHg 71%
    04:00 +15°C° 0 mm 2 mps 691 mmHg 71%
    05:00 +15°C° 0 mm 2 mps 691 mmHg 72%
    06:00 +15°C° 0 mm 2 mps 691 mmHg 73%
    07:00 +16°C° 0 mm 2 mps 692 mmHg 66%
    08:00 +18°C° 0 mm 2 mps 692 mmHg 58%
    09:00 +20°C° 0 mm 2 mps 692 mmHg 51%
    10:00 +21°C° 0 mm 2 mps 692 mmHg 47%
    11:00 +22°C° 0 mm 3 mps 692 mmHg 43%
    12:00 +24°C° 0 mm 3 mps 692 mmHg 39%
    13:00 +24°C° 0 mm 3 mps 691 mmHg 39%
    14:00 +25°C° 0 mm 3 mps 691 mmHg 39%
    15:00 +25°C° 0 mm 3 mps 691 mmHg 39%
    16:00 +24°C° 0.1 mm 3 mps 691 mmHg 44%
    17:00 +21°C° 0.1 mm 3 mps 691 mmHg 48%
    18:00 +20°C° 0.1 mm 3 mps 691 mmHg 53%
    19:00 +19°C° 0.2 mm 3 mps 691 mmHg 56%
    20:00 +18°C° 0.2 mm 3 mps 691 mmHg 59%
    21:00 +18°C° 0.2 mm 3 mps 691 mmHg 62%
    22:00 +17°C° 0.1 mm 3 mps 691 mmHg 64%
    23:00 +17°C° 0.1 mm 2 mps 691 mmHg 65%

    30 September, Saturday

    Time Temperature Precipitation Wind Pressure Humidity
    00:00 +16°C° 0.1 mm 2 mps 691 mmHg 67%
    01:00 +16°C° 0 mm 2 mps 690 mmHg 67%
    02:00 +16°C° 0 mm 2 mps 690 mmHg 68%
    03:00 +15°C° 0 mm 2 mps 690 mmHg 69%
    04:00 +15°C° 0 mm 2 mps 690 mmHg 69%
    05:00 +15°C° 0 mm 2 mps 690 mmHg 69%
    06:00 +14°C° 0 mm 2 mps 690 mmHg 69%
    07:00 +16°C° 0 mm 2 mps 690 mmHg 62%
    08:00 +18°C° 0 mm 2 mps 690 mmHg 55%
    09:00 +20°C° 0 mm 2 mps 690 mmHg 48%
    10:00 +21°C° 0.1 mm 2 mps 690 mmHg 46%
    11:00 +21°C° 0.1 mm 2 mps 690 mmHg 44%
    12:00 +23°C° 0.1 mm 2 mps 689 mmHg 41%
    13:00 +24°C° 0.2 mm 2 mps 689 mmHg 41%
    14:00 +24°C° 0.2 mm 2 mps 689 mmHg 41%
    15:00 +24°C° 0.2 mm 2 mps 688 mmHg 40%
    16:00 +23°C° 0.5 mm 2 mps 688 mmHg 45%
    17:00 +22°C° 0.5 mm 1 mps 688 mmHg 50%
    18:00 +20°C° 0.5 mm 1 mps 688 mmHg 55%
    19:00 +20°C° 0.5 mm 1 mps 688 mmHg 57%
    20:00 +20°C° 0.5 mm 1 mps 688 mmHg 59%
    21:00 +19°C° 0.5 mm 1 mps 688 mmHg 61%
    22:00 +19°C° 0.2 mm 1 mps 688 mmHg 63%
    23:00 +18°C° 0.2 mm 1 mps 688 mmHg 65%

    1 October, Sunday

    Time Temperature Precipitation Wind Pressure Humidity
    00:00 +16°C° 0.2 mm 1 mps 688 mmHg 68%
    01:00 +16°C° 0 mm 1 mps 688 mmHg 68%
    02:00 +16°C° 0 mm 1 mps 688 mmHg 69%
    03:00 +15°C° 0 mm 1 mps 688 mmHg 70%
    04:00 +15°C° 0 mm 1 mps 688 mmHg 69%
    05:00 +15°C° 0 mm 1 mps 689 mmHg 68%
    06:00 +15°C° 0 mm 1 mps 689 mmHg 68%
    07:00 +18°C° 0 mm 1 mps 689 mmHg 61%
    08:00 +20°C° 0 mm 1 mps 690 mmHg 53%
    09:00 +22°C° 0 mm 1 mps 690 mmHg 46%
    10:00 +23°C° 0 mm 2 mps 690 mmHg 43%
    11:00 +24°C° 0 mm 2 mps 690 mmHg 39%
    12:00 +25°C° 0 mm 2 mps 690 mmHg 36%
    13:00 +25°C° 0.1 mm 2 mps 689 mmHg 36%
    14:00 +26°C° 0.1 mm 3 mps 689 mmHg 35%
    15:00 +26°C° 0.1 mm 3 mps 689 mmHg 34%
    16:00 +24°C° 0.2 mm 2 mps 689 mmHg 38%
    17:00 +23°C° 0.2 mm 2 mps 689 mmHg 42%
    18:00 +21°C° 0.2 mm 2 mps 689 mmHg 46%
    19:00 +20°C° 0.2 mm 2 mps 689 mmHg 48%
    20:00 +20°C° 0.2 mm 2 mps 689 mmHg 50%
    21:00 +20°C° 0.2 mm 2 mps 690 mmHg 52%
    22:00 +19°C° 0.1 mm 2 mps 690 mmHg 55%
    23:00 +19°C° 0.1 mm 2 mps 690 mmHg 57%
    Show more